1512907200.78,18816,3.06,71696.3,-10.45,-45.61,-45.53,0,*67
1512907202.03,18817,3.06,71692.5,-10.41,-44.87,-44.99,0,*6C
1512907203.27,18818,3.06,71694.8,-10.43,-44.13,-44.53,0,*6A
1512907204.49,18819,3.06,71698.5,-10.43,-43.75,-44.27,0,*6F
1512907205.79,18820,3.06,71696.8,-10.41,-43.55,-44.13,0,*62
1512907207.05,18821,3.06,71700.5,-10.41,-43.87,-44.33,0,*6E
1512907208.32,18822,3.06,71696.3,-10.41,-43.75,-44.13,0,*62
1512907209.56,18823,3.06,71702.0,-10.35,-44.07,-44.47,0,*63
1512907210.8,18824,3.06,71698.0,-10.35,-43.95,-44.33,0,*6B
1512907212.04,18825,3.06,71698.5,-10.35,-44.53,-45.07,0,*61
1512907213.3,18826,3.06,71692.8,-10.37,-44.61,-45.07,0,*61
1512907214.53,18827,3.06,71692.5,-10.35,-44.87,-45.41,0,*68
1512907215.75,18828,3.06,71692.0,-10.35,-44.99,-45.61,0,*6A
1512907217.05,18829,3.06,71692.0,-10.37,-44.93,-45.47,0,*67
1512907218.28,18830,3.06,71694.3,-10.37,-45.33,-45.67,0,*66
1512907219.55,18831,3.06,71688.3,-10.37,-46.07,-46.55,0,*61
1512907220.8,18832,3.06,71692.0,-10.37,-45.95,-46.21,0,*69
1512907222.07,18833,3.06,71694.5,-10.37,-46.15,-46.35,0,*66
1512907223.36,18834,3.06,71692.5,-10.37,-46.61,-46.61,0,*63
1512907224.63,18835,3.06,71694.3,-10.37,-46.61,-46.75,0,*67
1512907225.9,18836,3.06,71692.8,-10.41,-47.57,-47.71,0,*64
1512907227.16,18837,3.06,71696.8,-10.43,-47.71,-47.93,0,*6F
1512907228.37,18838,3.06,71704.0,-10.45,-47.09,-47.09,0,*6A
1512907229.6,18839,3.06,71710.8,-10.45,-46.01,-46.01,0,*6B
1512907230.84,18840,3.06,71702.0,-10.45,-45.95,-45.81,0,*60
1512907232.05,18841,3.06,71692.3,-10.45,-45.61,-45.61,0,*64
1512907233.29,18842,3.06,71702.5,-10.45,-45.81,-45.95,0,*62
1512907234.53,18843,3.06,71700.8,-10.45,-46.83,-46.61,0,*6A
1512907235.77,18844,3.06,71698.0,-10.45,-45.95,-46.15,0,*6A
1512907237.05,18845,3.06,71702.5,-10.43,-46.27,-46.27,0,*66
1512907238.3,18846,3.06,71702.3,-10.43,-46.83,-46.89,0,*6F
1512907239.56,18847,3.06,71704.0,-10.47,-46.69,-46.75,0,*6D
1512907240.78,18848,3.06,71704.8,-10.45,-45.87,-46.01,0,*60
1512907242.04,18849,3.06,71706.0,-10.47,-46.21,-46.27,0,*68
1512907243.29,18850,3.06,71702.8,-10.45,-46.15,-46.21,0,*63
1512907244.58,18851,3.06,71704.5,-10.47,-46.07,-46.27,0,*65
1512907245.84,18852,3.06,71700.5,-10.47,-46.35,-46.49,0,*6F
1512907247.06,18853,3.06,71702.3,-10.45,-45.95,-45.95,0,*67
1512907248.3,18854,3.06,71700.8,-10.45,-45.95,-46.15,0,*6B
1512907249.54,18855,3.06,71702.5,-10.47,-46.21,-46.35,0,*66
1512907250.8,18856,3.06,71704.8,-10.45,-47.23,-47.23,0,*62
1512907252.04,18857,3.06,71706.5,-10.47,-47.31,-47.51,0,*67
1512907253.31,18858,3.06,71706.0,-10.47,-46.89,-46.97,0,*61
1512907254.55,18859,3.06,71710.3,-10.49,-46.01,-46.07,0,*67
1512907255.77,18860,3.06,71706.5,-10.49,-45.87,-46.01,0,*66
1512907257.02,18861,3.06,71704.5,-10.49,-46.27,-46.55,0,*6F
1512907258.26,18862,3.06,71702.8,-10.47,-46.01,-46.21,0,*65
1512907259.49,18863,3.06,71706.0,-10.47,-47.09,-47.09,0,*66
1512907260.78,18864,3.06,71702.0,-10.47,-46.07,-46.27,0,*63
1512907262.04,18865,3.06,71694.8,-10.49,-45.81,-45.81,0,*6E
1512907263.28,18866,3.06,71690.5,-10.47,-46.35,-46.55,0,*65
1512907264.57,18867,3.06,71688.0,-10.47,-46.07,-46.27,0,*60
1512907265.83,18868,3.06,71694.8,-10.47,-47.37,-47.65,0,*6A
1512907267.12,18869,3.06,71694.8,-10.51,-47.93,-47.93,0,*6B
1512907268.42,18870,3.06,71690.5,-10.51,-47.45,-47.45,0,*63
1512907269.66,18871,3.06,71692.3,-10.51,-46.55,-46.75,0,*60
1512907270.9,18872,3.06,71692.8,-10.51,-46.97,-47.17,0,*68
1512907272.19,18873,3.06,71696.3,-10.51,-46.41,-46.61,0,*62
1512907273.4,18874,3.06,71700.8,-10.53,-45.67,-45.87,0,*6B
1512907274.7,18875,3.06,71702.3,-10.51,-45.07,-45.27,0,*64
1512907275.96,18876,3.06,71700.0,-10.51,-45.67,-45.73,0,*60
1512907277.17,18877,3.06,71696.3,-10.49,-46.75,-46.75,0,*6D
1512907278.42,18878,3.06,71690.8,-10.51,-46.83,-46.97,0,*6E
1512907279.71,18879,3.06,71696.0,-10.51,-46.07,-46.27,0,*68
1512907281.01,18880,3.06,71706.0,-10.51,-46.07,-46.27,0,*6E
1512907282.28,18881,3.06,71714.3,-10.51,-45.95,-46.07,0,*65
1512907283.55,18882,3.06,71714.8,-10.51,-46.61,-46.83,0,*62
1512907284.82,18883,3.06,71712.8,-10.51,-46.97,-47.03,0,*63
1512907286.03,18884,3.06,71708.5,-10.49,-46.55,-46.75,0,*63
1512907287.28,18885,3.06,71708.5,-10.51,-46.35,-46.75,0,*6D
1512907288.58,18886,3.06,71704.8,-10.51,-46.07,-46.15,0,*69
1512907289.82,18887,3.06,71708.0,-10.51,-46.55,-46.75,0,*69
1512907291.06,18888,3.06,71712.0,-10.51,-46.75,-46.83,0,*6D
1512907292.31,18889,3.06,71708.0,-10.51,-46.35,-46.55,0,*63
1512907293.56,18890,3.06,71702.5,-10.53,-46.89,-46.97,0,*60
1512907294.78,18891,3.06,71702.8,-10.53,-46.97,-47.17,0,*67
1512907296.01,18892,3.06,71702.8,-10.53,-45.73,-45.87,0,*66
1512907297.26,18893,3.13,71708.0,-10.53,-45.53,-45.73,0,*6E
1512907298.5,18894,3.06,71708.3,-10.53,-45.53,-45.73,0,*69
1512907299.77,18895,3.06,71708.3,-10.51,-45.87,-46.15,0,*60
1512907301.04,18896,3.06,71706.3,-10.51,-45.95,-46.27,0,*61
1512907302.31,18897,3.06,71704.8,-10.51,-45.95,-46.27,0,*60
1512907303.53,18898,3.06,71708.3,-10.49,-46.01,-46.35,0,*6B
1512907304.8,18899,3.06,71704.5,-10.51,-45.95,-46.15,0,*6F
1512907306.01,18900,3.06,71694.8,-10.49,-45.41,-45.61,0,*6E
1512907307.23,18901,3.06,71688.5,-10.49,-45.41,-45.61,0,*6F
1512907308.44,18902,3.06,71688.3,-10.49,-45.21,-45.41,0,*68
1512907309.68,18903,3.06,71694.3,-10.49,-45.41,-45.47,0,*69
1512907310.92,18904,3.06,71692.3,-10.49,-45.61,-45.81,0,*66
1512907312.14,18905,3.06,71694.3,-10.49,-45.87,-46.01,0,*64
1512907313.4,18906,3.06,71694.8,-10.47,-45.87,-46.07,0,*6F
1512907314.66,18907,3.06,71690.0,-10.47,-45.87,-46.07,0,*6E
1512907315.89,18908,3.06,71686.3,-10.47,-45.87,-46.35,0,*60
1512907317.15,18909,3.06,71682.3,-10.47,-45.47,-46.21,0,*68
1512907318.42,18910,3.06,71682.0,-10.47,-44.73,-45.41,0,*63
1512907319.7,18911,3.06,71682.8,-10.47,-44.13,-44.73,0,*64
1512907320.98,18912,3.06,71684.3,-10.47,-43.55,-44.01,0,*67
1512907322.25,18913,3.06,71688.3,-10.47,-42.95,-43.15,0,*69
1512907323.49,18914,3.06,71686.3,-10.45,-42.63,-42.69,0,*6F
1512907324.72,18915,3.13,71692.3,-10.45,-42.69,-42.89,0,*6A
1512907325.99,18916,3.06,71690.3,-10.41,-42.83,-43.01,0,*68
1512907327.27,18917,3.06,71686.0,-10.41,-43.55,-43.95,0,*6E
1512907328.54,18918,3.13,71688.3,-10.41,-43.55,-44.07,0,*6D
1512907329.79,18919,3.06,71688.3,-10.41,-43.41,-43.95,0,*65
1512907331.04,18920,3.06,71694.8,-10.41,-43.41,-43.75,0,*61
1512907332.31,18921,3.06,71694.3,-10.41,-43.29,-43.87,0,*63
1512907333.58,18922,3.06,71694.3,-10.41,-43.01,-43.29,0,*6E
1512907334.82,18923,3.06,71698.3,-10.35,-42.05,-42.37,0,*67
1512907336.05,18924,3.13,71706.5,-10.35,-42.05,-42.37,0,*60
1512907337.32,18925,3.06,71702.8,-10.37,-42.13,-42.45,0,*61
1512907338.56,18926,3.06,71702.3,-10.33,-42.89,-43.15,0,*61
1512907339.85,18927,3.06,71706.3,-10.33,-43.55,-43.81,0,*6D
1512907341.11,18928,3.06,71706.5,-10.33,-43.81,-43.95,0,*6E
1512907342.33,18929,3.06,71706.5,-10.31,-44.27,-44.07,0,*6A
1512907343.58,18930,3.06,71708.5,-10.35,-44.21,-43.95,0,*6C
1512907344.8,18931,3.06,71704.0,-10.35,-44.87,-44.61,0,*6D
1512907346.07,18932,3.06,71704.8,-10.33,-44.53,-44.33,0,*66
1512907347.34,18933,3.06,71708.5,-10.33,-44.13,-43.95,0,*68
1512907348.6,18934,3.06,71714.5,-10.33,-44.13,-44.27,0,*61
1512907349.87,18935,3.06,71712.0,-10.33,-44.79,-45.07,0,*6F
1512907351.12,18936,3.06,71714.5,-10.33,-44.87,-45.21,0,*69
1512907352.39,18937,3.06,71708.3,-10.33,-44.61,-44.73,0,*66
1512907353.6,18938,3.06,71704.5,-10.31,-44.53,-44.53,0,*68
1512907354.84,18939,3.13,71712.0,-10.31,-44.93,-44.99,0,*63
1512907356.08,18940,3.06,71716.0,-10.31,-45.61,-45.81,0,*69
1512907357.29,18941,3.13,71722.3,-10.31,-45.13,-45.33,0,*64
1512907358.51,18942,3.13,71718.5,-10.31,-44.99,-45.21,0,*67
1512907359.76,18943,3.13,71718.8,-10.31,-44.67,-44.67,0,*64
1512907361.02,18944,3.13,71716.8,-10.33,-44.87,-44.87,0,*61
1512907362.23,18945,3.06,71716.8,-10.31,-45.41,-45.21,0,*64
1512907363.46,18946,3.06,71712.5,-10.29,-45.33,-45.41,0,*6D
1512907364.71,18947,3.13,71714.3,-10.27,-46.01,-46.15,0,*62
1512907365.95,18948,3.06,71708.3,-10.27,-46.35,-46.41,0,*6B
1512907367.21,18949,3.06,71704.0,-10.31,-46.41,-46.49,0,*66
1512907368.48,18950,3.13,71702.5,-10.31,-46.27,-46.41,0,*66
1512907369.72,18951,3.06,71696.8,-10.31,-48.13,-48.21,0,*66
1512907370.98,18952,3.06,71698.0,-10.33,-48.27,-48.49,0,*6E
1512907372.25,18953,3.13,71696.0,-10.33,-48.21,-48.27,0,*61
1512907373.52,18954,3.06,71688.8,-10.37,-49.05,-49.19,0,*69
1512907374.76,18955,3.13,71694.8,-10.41,-48.83,-49.05,0,*6B
1512907376.0,18956,3.06,71704.5,-10.43,-49.47,-49.67,0,*67
1512907377.26,18957,3.13,71730.3,-10.47,-48.27,-48.41,0,*60
1512907378.52,18958,3.06,71726.0,-10.47,-46.69,-46.75,0,*62
1512907379.75,18959,3.06,71718.3,-10.45,-45.73,-45.95,0,*64
1512907380.99,18960,3.13,71720.5,-10.45,-45.95,-46.27,0,*6C
1512907382.26,18961,3.06,71716.8,-10.45,-46.69,-47.23,0,*68
1512907383.5,18962,3.13,71722.3,-10.47,-47.99,-48.07,0,*6E
1512907384.76,18963,3.06,71716.8,-10.47,-48.07,-48.27,0,*65
1512907386.01,18964,3.06,71718.8,-10.49,-48.21,-48.27,0,*68
1512907387.28,18965,3.06,71716.5,-10.51,-48.55,-48.77,0,*66
1512907388.53,18966,3.06,71720.3,-10.51,-47.65,-47.93,0,*6C
1512907389.83,18967,3.13,71720.8,-10.51,-47.23,-47.45,0,*64
1512907391.12,18968,3.06,71720.8,-10.51,-47.23,-47.45,0,*6B
1512907392.34,18969,3.13,71716.8,-10.53,-46.83,-46.97,0,*6D
1512907393.56,18970,3.06,71714.5,-10.53,-47.57,-47.65,0,*61
1512907394.8,18971,3.13,71716.3,-10.55,-47.99,-48.21,0,*6B
1512907396.06,18972,3.06,71708.0,-10.55,-47.71,-47.99,0,*62
1512907397.3,18973,3.13,71722.0,-10.57,-47.51,-47.71,0,*65
1512907398.54,18974,3.06,71714.0,-10.57,-47.65,-47.71,0,*65
1512907399.78,18975,3.13,71710.3,-10.57,-47.45,-47.65,0,*63
1512907401.05,18976,3.06,71704.8,-10.59,-47.31,-47.37,0,*6A
1512907402.35,18977,3.06,71706.8,-10.59,-47.37,-47.71,0,*6F
1512907403.62,18978,3.06,71716.0,-10.59,-46.89,-47.09,0,*6B
1512907404.86,18979,3.13,71724.0,-10.63,-46.83,-46.97,0,*6F
1512907406.1,18980,3.13,71726.3,-10.59,-46.75,-46.97,0,*69
1512907407.34,18981,3.06,71720.5,-10.59,-47.09,-47.17,0,*6B
1512907408.61,18982,3.06,71712.8,-10.59,-46.89,-46.97,0,*68
1512907409.88,18983,3.06,71710.0,-10.59,-46.69,-46.75,0,*6B
1512907411.17,18984,3.06,71714.8,-10.59,-46.69,-46.89,0,*6F
1512907412.42,18985,3.06,71714.8,-10.57,-46.61,-46.83,0,*62
1512907413.71,18986,3.13,71722.3,-10.59,-46.49,-46.69,0,*61
1512907414.98,18987,3.13,71722.0,-10.59,-46.69,-46.75,0,*6F
1512907416.24,18988,3.13,71722.8,-10.59,-46.75,-46.89,0,*6E
1512907417.48,18989,3.06,71722.3,-10.59,-47.17,-47.31,0,*68
1512907418.75,18990,3.06,71722.3,-10.59,-46.89,-47.09,0,*6D
1512907420.05,18991,3.06,71710.8,-10.59,-46.89,-46.89,0,*65
1512907421.32,18992,3.06,71706.0,-10.59,-46.75,-46.89,0,*65
1512907422.58,18993,3.06,71696.5,-10.63,-46.61,-46.83,0,*62
1512907423.87,18994,3.13,71696.0,-10.63,-47.03,-47.03,0,*69
1512907425.16,18995,3.06,71688.5,-10.59,-47.37,-47.37,0,*61
1512907426.43,18996,3.06,71674.5,-10.63,-47.57,-47.45,0,*68
1512907427.7,18997,3.06,71662.0,-10.65,-47.45,-47.45,0,*6C
1512907428.95,18998,3.13,71670.0,-10.65,-47.79,-47.85,0,*60
1512907430.15,18999,3.06,71676.0,-10.65,-47.65,-47.65,0,*62
1512907431.4,19000,3.13,71660.5,-10.65,-47.79,-48.07,0,*6C
1512907432.61,19001,3.06,71648.3,-10.65,-47.65,-47.65,0,*6B
1512907433.82,19002,3.06,71644.3,-10.69,-47.65,-47.85,0,*6A
1512907435.08,19003,3.06,71640.3,-10.67,-47.65,-47.93,0,*62
1512907436.33,19004,3.06,71650.0,-10.69,-48.13,-48.21,0,*63
1512907437.54,19005,3.13,71652.3,-10.69,-47.85,-47.99,0,*6E
1512907438.78,19006,3.13,71642.5,-10.71,-47.51,-47.65,0,*6E
1512907440.02,19007,3.06,71634.0,-10.71,-47.31,-47.51,0,*6E
1512907441.24,19008,3.06,71620.3,-10.73,-47.99,-47.99,0,*65
1512907442.48,19009,3.13,71628.3,-10.73,-48.91,-49.05,0,*68
1512907443.72,19010,3.13,71666.3,-10.73,-47.79,-47.99,0,*62
1512907444.94,19011,3.13,71680.8,-10.73,-47.09,-47.17,0,*62
1512907446.16,19012,3.06,71680.8,-10.73,-46.97,-47.09,0,*68
1512907447.43,19013,3.13,71690.8,-10.75,-47.37,-47.51,0,*69
1512907448.68,19014,3.06,71654.3,-10.75,-46.97,-47.09,0,*68
1512907449.95,19015,3.06,71670.8,-10.77,-46.27,-46.15,0,*6C
1512907451.22,19016,3.13,71690.3,-10.75,-46.49,-46.75,0,*63
1512907452.44,19017,3.13,71696.0,-10.73,-46.75,-46.75,0,*6B
1512907453.66,19018,3.06,71688.3,-10.73,-46.97,-46.97,0,*64
1512907454.96,19019,3.06,71694.8,-10.75,-47.37,-47.37,0,*63
1512907456.2,19020,3.06,71678.5,-10.75,-47.51,-47.31,0,*6F
1512907457.47,19021,3.13,71670.0,-10.75,-47.31,-47.37,0,*6E
1512907458.76,19022,3.06,71668.8,-10.75,-47.71,-47.79,0,*63
1512907460.0,19023,3.13,71672.8,-10.77,-47.99,-48.13,0,*65
1512907461.22,19024,3.13,71674.5,-10.77,-47.85,-48.07,0,*6A
1512907462.44,19025,3.13,71670.8,-10.77,-47.85,-48.07,0,*6B
1512907463.68,19026,3.13,71676.8,-10.77,-47.99,-48.27,0,*67
1512907464.92,19027,3.06,71660.3,-10.79,-47.99,-48.07,0,*6A
1512907466.19,19028,3.06,71668.0,-10.81,-47.93,-48.13,0,*6D
1512907467.46,19029,3.06,71664.5,-10.81,-47.93,-48.13,0,*6C
1512907468.73,19030,3.13,71672.8,-10.83,-47.85,-48.13,0,*61
1512907470.0,19031,3.13,71682.8,-10.83,-47.71,-47.85,0,*6B
1512907471.3,19032,3.13,71694.0,-10.83,-47.45,-47.45,0,*63
1512907472.6,19033,3.06,71690.8,-10.83,-47.45,-47.45,0,*62
1512907473.86,19034,3.13,71698.0,-10.83,-47.51,-47.71,0,*67
1512907475.15,19035,3.06,71696.0,-10.87,-47.37,-47.37,0,*60
1512907476.4,19036,3.13,71696.8,-10.87,-46.83,-47.09,0,*60
1512907477.69,19037,3.13,71702.3,-10.87,-46.61,-46.89,0,*64
1512907478.93,19038,3.06,71702.8,-10.83,-46.21,-46.55,0,*6A
1512907480.22,19039,3.06,71704.3,-10.87,-46.27,-46.61,0,*6E
1512907481.49,19040,3.13,71702.5,-10.83,-46.15,-46.75,0,*60
1512907482.73,19041,3.13,71698.8,-10.87,-45.67,-46.21,0,*62
1512907483.98,19042,3.13,71702.3,-10.83,-45.33,-46.01,0,*66
1512907485.25,19043,3.06,71692.8,-10.83,-45.27,-45.95,0,*6C
1512907486.55,19044,3.13,71696.3,-10.83,-45.07,-45.81,0,*6C
1512907487.8,19045,3.06,71692.0,-10.81,-44.73,-45.61,0,*63
1512907489.06,19046,3.06,71690.3,-10.79,-43.75,-45.07,0,*66
1512907490.33,19047,3.13,71688.8,-10.81,-43.21,-45.27,0,*63
1512907491.57,19048,3.06,71694.0,-10.81,-42.25,-44.33,0,*6D
1512907492.84,19049,3.13,71696.3,-10.79,-41.55,-43.75,0,*6A
1512907494.11,19050,3.13,71698.8,-10.79,-41.35,-43.15,0,*62
1512907495.31,19051,3.13,71696.3,-10.77,-41.11,-42.37,0,*6A
1512907496.56,19052,3.13,71698.0,-10.75,-40.91,-41.73,0,*61
1512907497.82,19053,3.06,71698.3,-10.75,-41.49,-42.05,0,*66
1512907499.09,19054,3.13,71700.8,-10.75,-42.45,-42.89,0,*6A
1512907500.33,19055,3.06,71698.0,-10.73,-42.25,-42.69,0,*65
1512907501.62,19056,3.13,71702.8,-10.71,-42.05,-42.45,0,*68
1512907502.85,19057,3.06,71696.0,-10.71,-42.37,-42.25,0,*6E
1512907504.12,19058,3.13,71698.3,-10.71,-42.83,-42.89,0,*68
1512907505.4,19059,3.13,71698.8,-10.71,-42.83,-42.83,0,*63
1512907506.65,19060,3.13,71696.0,-10.67,-43.75,-43.41,0,*69
1512907507.89,19061,3.13,71698.5,-10.69,-43.67,-43.61,0,*67
1512907509.18,19062,3.06,71698.5,-10.67,-43.21,-43.21,0,*6C
1512907510.45,19063,3.06,71696.5,-10.67,-44.21,-44.27,0,*6B
1512907511.72,19064,3.13,71702.5,-10.67,-43.75,-44.01,0,*6E
1512907512.98,19065,3.13,71702.5,-10.67,-43.61,-43.81,0,*65
1512907514.22,19066,3.06,71700.0,-10.65,-43.87,-44.21,0,*61
1512907515.48,19067,3.13,71710.3,-10.63,-43.81,-43.87,0,*6B
1512907516.74,19068,3.13,71710.8,-10.63,-43.75,-43.81,0,*69
1512907517.98,19069,3.13,71712.8,-10.57,-44.07,-44.13,0,*61
1512907519.22,19070,3.06,71708.5,-10.57,-44.33,-44.27,0,*69
1512907520.46,19071,3.13,71710.0,-10.57,-44.47,-44.53,0,*68
1512907521.71,19072,3.13,71706.3,-10.57,-44.27,-44.13,0,*69
1512907522.95,19073,3.13,71716.8,-10.57,-44.27,-44.13,0,*68
1512907524.22,19074,3.13,71720.5,-10.57,-44.33,-44.13,0,*6A
1512907525.46,19075,3.13,71720.5,-10.53,-44.07,-44.01,0,*6B
1512907526.74,19076,3.13,71704.0,-10.55,-44.47,-44.47,0,*68
1512907527.98,19077,3.06,71704.8,-10.55,-44.53,-44.53,0,*69
1512907529.26,19078,3.13,71704.8,-10.53,-45.27,-45.27,0,*60
1512907530.49,19079,3.13,71714.5,-10.53,-45.73,-45.67,0,*64
1512907531.72,19080,3.13,71710.8,-10.53,-44.87,-44.87,0,*67
1512907532.94,19081,3.13,71710.3,-10.53,-45.67,-45.87,0,*68
1512907534.21,19082,3.13,71718.0,-10.53,-46.15,-46.27,0,*64
1512907535.5,19083,3.13,71710.5,-10.55,-46.41,-46.49,0,*6A
1512907536.77,19084,3.13,71714.0,-10.55,-47.23,-47.31,0,*66
1512907538.02,19085,3.13,71702.5,-10.53,-46.89,-47.17,0,*64
1512907539.24,19086,3.06,71676.8,-10.53,-46.55,-46.75,0,*63
1512907540.51,19087,3.06,71676.8,-10.55,-47.45,-47.51,0,*63
1512907541.78,19088,3.13,71702.0,-10.55,-48.21,-48.35,0,*6C
1512907542.99,19089,3.13,71708.3,-10.57,-47.51,-47.65,0,*6D
1512907544.25,19090,3.13,71692.8,-10.59,-47.71,-47.85,0,*67
1512907545.54,19091,3.13,71684.0,-10.63,-48.13,-48.35,0,*60
1512907546.78,19092,3.13,71706.0,-10.63,-48.55,-48.49,0,*6A
1512907547.99,19093,3.06,71702.5,-10.65,-48.49,-48.49,0,*60
1512907549.29,19094,3.13,71698.0,-10.67,-47.45,-47.79,0,*6A
1512907550.53,19095,3.13,71690.0,-10.69,-47.51,-47.71,0,*68
1512907551.76,19096,3.06,71690.8,-10.69,-48.35,-48.41,0,*6A
1512907553.02,19097,3.06,71690.5,-10.69,-47.93,-48.35,0,*6B
1512907554.26,19098,3.13,71694.5,-10.71,-47.65,-47.85,0,*60
1512907555.54,19099,3.13,71690.8,-10.71,-47.31,-47.45,0,*6C
1512907556.75,19100,3.13,71688.5,-10.73,-46.97,-47.17,0,*65
1512907558.01,19101,3.13,71684.0,-10.73,-46.01,-46.07,0,*6B
1512907559.25,19102,3.13,71682.8,-10.73,-45.81,-46.01,0,*65
1512907560.5,19103,3.13,71682.5,-10.73,-45.67,-45.81,0,*67
1512907561.74,19104,3.13,71680.5,-10.73,-45.21,-45.47,0,*68
1512907563.01,19105,3.06,71678.8,-10.71,-44.33,-44.87,0,*64
1512907564.27,19106,3.13,71682.5,-10.71,-44.93,-45.13,0,*61
1512907565.53,19107,3.13,71682.0,-10.71,-44.93,-45.13,0,*60
1512907566.75,19108,3.13,71688.8,-10.69,-45.13,-45.61,0,*6A
1512907567.99,19109,3.13,71686.3,-10.69,-45.41,-45.81,0,*62
1512907569.24,19110,3.13,71686.5,-10.69,-44.87,-44.93,0,*63
1512907570.5,19111,3.13,71682.0,-10.69,-44.87,-44.93,0,*62
1512907571.74,19112,3.13,71682.5,-10.69,-44.87,-44.67,0,*6A
1512907573.01,19113,3.06,71688.8,-10.69,-44.93,-44.93,0,*65
1512907574.27,19114,3.13,71710.0,-10.67,-45.47,-45.67,0,*6E
1512907575.49,19115,3.13,71692.8,-10.69,-45.33,-45.53,0,*65
1512907576.76,19116,3.13,71688.0,-10.67,-45.87,-46.15,0,*66
1512907578.0,19117,3.13,71694.8,-10.67,-45.95,-46.35,0,*66
1512907579.27,19118,3.13,71704.8,-10.65,-46.07,-46.27,0,*60
1512907580.56,19119,3.13,71710.8,-10.67,-46.49,-46.61,0,*6B
1512907581.83,19120,3.13,71706.5,-10.67,-46.83,-47.03,0,*62
1512907583.07,19121,3.13,71700.3,-10.69,-47.23,-47.31,0,*67
1512907584.33,19122,3.06,71696.0,-10.69,-46.89,-47.03,0,*64
1512907585.57,19123,3.13,71680.5,-10.69,-47.03,-47.09,0,*6C
1512907586.79,19124,3.13,71696.8,-10.69,-46.35,-46.55,0,*67
1512907588.06,19125,3.13,71700.8,-10.69,-46.61,-46.89,0,*66
1512907589.3,19126,3.13,71692.5,-10.69,-46.55,-46.69,0,*6C
1512907590.57,19127,3.13,71686.0,-10.67,-46.27,-46.35,0,*6F
1512907591.82,19128,3.13,71684.8,-10.69,-46.61,-46.83,0,*61
1512907593.09,19129,3.13,71678.0,-10.73,-46.27,-46.27,0,*67
1512907594.36,19130,3.06,71668.3,-10.69,-46.89,-47.03,0,*67
1512907595.6,19131,3.13,71678.5,-10.69,-46.35,-46.69,0,*6C
1512907596.87,19132,3.13,71678.8,-10.69,-45.81,-46.15,0,*68
1512907598.15,19133,3.13,71670.8,-10.71,-45.81,-46.15,0,*60
1512907599.37,19134,3.13,71672.3,-10.69,-45.13,-45.41,0,*67
1512907600.63,19135,3.13,71686.5,-10.69,-45.27,-46.01,0,*66
1512907601.87,19136,3.06,71672.3,-10.69,-44.47,-45.61,0,*67
1512907603.15,19137,3.13,71678.0,-10.67,-46.35,-46.49,0,*66
1512907604.37,19138,3.13,71688.0,-10.69,-46.55,-46.55,0,*6C
1512907605.63,19139,3.13,71700.0,-10.69,-46.61,-46.69,0,*65
1512907606.87,19140,3.06,71706.8,-10.71,-47.51,-47.85,0,*63
1512907608.14,19141,3.13,71710.3,-10.71,-46.89,-47.09,0,*62
1512907609.35,19142,3.06,71700.8,-10.73,-47.17,-47.51,0,*68
1512907610.62,19143,3.06,71694.0,-10.75,-46.61,-46.75,0,*68
1512907611.87,19144,3.13,71692.5,-10.73,-46.01,-46.07,0,*6A
1512907613.14,19145,3.06,71710.5,-10.73,-46.27,-46.69,0,*67
1512907614.37,19146,3.13,71710.3,-10.73,-47.09,-47.31,0,*65
1512907615.61,19147,3.06,71706.5,-10.73,-47.09,-47.37,0,*62
1512907616.88,19148,3.13,71704.5,-10.75,-46.49,-46.75,0,*69
1512907618.16,19149,3.13,71706.5,-10.75,-46.01,-46.49,0,*6B
1512907619.42,19150,3.13,71690.3,-10.75,-44.53,-45.47,0,*6B
1512907620.66,19151,3.13,71700.0,-10.75,-44.41,-45.67,0,*6B
1512907621.96,19152,3.13,71700.3,-10.75,-44.93,-46.41,0,*60
1512907623.21,19153,3.13,71696.5,-10.75,-45.13,-46.01,0,*6C
1512907624.47,19154,3.13,71686.8,-10.75,-45.87,-46.69,0,*68
1512907625.77,19155,3.13,71690.0,-10.75,-46.27,-46.89,0,*6E
1512907626.99,19156,3.13,71692.3,-10.77,-46.35,-46.83,0,*66
1512907628.28,19157,3.13,71698.3,-10.75,-46.41,-46.89,0,*6C
1512907629.57,19158,3.13,71682.8,-10.75,-46.27,-46.61,0,*65
1512907630.84,19159,3.13,71690.8,-10.75,-45.47,-46.01,0,*67
1512907632.1,19160,3.13,71692.8,-10.75,-44.79,-46.01,0,*61
1512907633.34,19161,3.13,71694.5,-10.75,-45.33,-45.87,0,*62
1512907634.61,19162,3.06,71690.0,-10.75,-45.67,-46.07,0,*6B
1512907635.91,19163,3.13,71688.5,-10.75,-46.07,-46.49,0,*65
1512907637.17,19164,3.13,71682.5,-10.75,-46.21,-46.61,0,*6C
1512907638.44,19165,3.13,71684.8,-10.75,-45.87,-46.07,0,*62
1512907639.71,19166,3.13,71684.0,-10.75,-45.87,-46.07,0,*61
1512907640.96,19167,3.13,71682.0,-10.75,-45.67,-46.01,0,*68
1512907642.19,19168,3.06,71674.8,-10.75,-45.41,-45.67,0,*60
1512907643.44,19169,3.13,71672.5,-10.75,-44.99,-45.33,0,*64
1512907644.66,19170,3.13,71672.0,-10.73,-44.99,-44.99,0,*6B
1512907645.91,19171,3.06,71678.3,-10.71,-44.47,-44.53,0,*6D
1512907647.15,19172,3.13,71676.8,-10.71,-45.33,-45.61,0,*6C
1512907648.42,19173,3.13,71680.5,-10.71,-45.95,-46.15,0,*61
1512907649.66,19174,3.13,71684.0,-10.73,-46.69,-47.31,0,*63
1512907650.9,19175,3.13,71684.8,-10.73,-46.41,-47.09,0,*63
1512907652.14,19176,3.13,71680.3,-10.73,-44.73,-45.67,0,*69
1512907653.39,19177,3.13,71680.5,-10.73,-44.01,-44.99,0,*6D
1512907654.65,19178,3.13,71678.8,-10.71,-43.87,-44.73,0,*6D
1512907655.91,19179,3.13,71680.0,-10.71,-44.07,-45.07,0,*61
1512907657.17,19180,3.13,71680.5,-10.71,-43.87,-44.73,0,*6A
1512907658.43,19181,3.13,71678.0,-10.71,-43.61,-44.33,0,*67
1512907659.7,19182,3.13,71680.3,-10.67,-43.15,-44.01,0,*61
1512907660.91,19183,3.13,71682.3,-10.69,-43.61,-44.07,0,*6B
1512907662.13,19184,3.13,71682.3,-10.69,-43.41,-43.87,0,*61
1512907663.39,19185,3.13,71690.0,-10.67,-43.21,-43.61,0,*60
1512907664.65,19186,3.13,71690.5,-10.69,-43.29,-43.81,0,*6B
1512907665.89,19187,3.13,71692.5,-10.67,-43.35,-43.87,0,*6F
1512907667.18,19188,3.13,71694.0,-10.67,-43.55,-44.21,0,*6D
1512907668.41,19189,3.13,71696.0,-10.65,-43.35,-43.81,0,*65
1512907669.65,19190,3.13,71698.0,-10.63,-43.41,-43.75,0,*63
1512907670.92,19191,3.13,71694.8,-10.63,-44.01,-44.07,0,*63
1512907672.16,19192,3.06,71690.5,-10.63,-44.79,-44.79,0,*66
1512907673.43,19193,3.13,71690.8,-10.59,-44.93,-44.99,0,*64
1512907674.7,19194,3.13,71692.5,-10.63,-44.87,-44.67,0,*6E
1512907675.98,19195,3.06,71686.8,-10.59,-45.47,-45.47,0,*68
1512907677.25,19196,3.13,71690.0,-10.59,-45.47,-45.61,0,*6F
1512907678.5,19197,3.13,71692.8,-10.57,-46.01,-46.07,0,*62
1512907679.8,19198,3.13,71702.3,-10.63,-46.07,-46.27,0,*6E
1512907681.06,19199,3.13,71702.8,-10.63,-45.95,-46.07,0,*65
1512907682.31,19200,3.13,71696.0,-10.65,-45.07,-45.21,0,*6C
1512907683.55,19201,3.13,71694.5,-10.65,-45.95,-46.07,0,*61
1512907684.77,19202,3.13,71696.8,-10.65,-46.75,-46.83,0,*63
1512907685.98,19203,3.13,71704.8,-10.65,-47.17,-47.17,0,*6B
1512907687.26,19204,3.13,71704.8,-10.65,-46.27,-46.49,0,*64
1512907688.5,19205,3.13,71706.5,-10.67,-46.55,-46.75,0,*6D
1512907689.76,19206,3.13,71704.8,-10.69,-46.69,-47.03,0,*6F
1512907690.97,19207,3.13,71704.3,-10.69,-47.65,-47.85,0,*6D
1512907692.21,19208,3.13,71714.3,-10.71,-47.51,-47.85,0,*6C
1512907693.46,19209,3.13,71720.0,-10.73,-47.71,-48.07,0,*68
1512907694.7,19210,3.13,71728.5,-10.73,-47.17,-47.37,0,*6C
1512907695.97,19211,3.13,71738.3,-10.73,-46.69,-46.89,0,*61
1512907697.21,19212,3.13,71736.3,-10.75,-46.01,-46.21,0,*68
1512907698.48,19213,3.13,71728.8,-10.75,-45.81,-46.01,0,*60
1512907699.75,19214,3.13,71720.0,-10.73,-46.07,-46.41,0,*68
1512907700.99,19215,3.13,71718.3,-10.73,-46.41,-46.75,0,*6C